Weather History for KBDN - October, 2012

Change the Weather History Date:

Friday, October 5, 2012

  Actual Average (KRDM) Record (KRDM)
Temperature  
Mean Temperature 40 °F 51 °F  
Max Temperature 57 °F 69 °F 92 °F (1980)
Min Temperature 24 °F 33 °F 18 °F (2000)
Degree Days  
Heating Degree Days 24 14  
Month to date heating degree days 67  
Since 1 July heating degree days 466  
Cooling Degree Days 0 0  
Month to date cooling degree days 0  
Year to date cooling degree days 222  
Moisture  
Dew Point 5 °F    
Average Humidity 25    
Maximum Humidity 51    
Minimum Humidity 9    
Precipitation  
Precipitation 0.00 in 0.02 in 0.22 in (1963)
Month to date precipitation 0.08  
Year to date precipitation 6.22  
Sea Level Pressure  
Sea Level Pressure 30.26 in    
Wind  
Wind Speed 5 mph (NW)    
Max Wind Speed 12 mph    
Max Gust Speed 16 mph    
Visibility 10 miles    
Events      
T = Trace of Precipitation, MM = Missing Value Source: NWS Daily Summary

Daily Weather History Graph

Daily Weather History Graph

Search for Another Location

Airport or City:

Trip Planner

Search our weather history database for the weather conditions in past years. The results will help you decide how hot, cold, wet, or windy it might be!

Date:

Astronomy

Oct. 05, 2012 Rise Set
Actual Time 7:07 AM PDT 6:37 PM PDT
Civil Twilight 6:39 AM PDT 7:06 PM PDT
Nautical Twilight 6:05 AM PDT 7:39 PM PDT
Astronomical Twilight 5:31 AM PDT 8:13 PM PDT
Moon 9:55 PM PDT (10/5) 12:29 PM PDT (10/5)
Length of Visible Light 12h 27m
Length of Day
11h 29m
Waning Gibbous, 73% of the Moon is Illuminated
Oct 5
Waning Gibbous
Oct 8
Last Quarter
Oct 15
New
Oct 21
First Quarter
Oct 29
Full

Hourly Weather History & Observations

Time (PDT) Temp. Windchill Dew Point Humidity Pressure Visibility Wind Dir Wind Speed Gust Speed Precip Events Conditions
12:15 AM 37.4 °F 31.4 °F 6.8 °F 28% 30.26 in 10.0 mi West 8.1 mph - N/A   Clear
12:35 AM 37.4 °F 32.8 °F 6.8 °F 28% 30.27 in 10.0 mi WNW 5.8 mph - N/A   Clear
12:55 AM 37.4 °F 32.1 °F 6.8 °F 28% 30.27 in 10.0 mi West 6.9 mph - N/A   Clear
1:15 AM 35.6 °F 31.7 °F 6.8 °F 30% 30.27 in 10.0 mi West 4.6 mph - N/A   Clear
1:35 AM 32.0 °F 27.5 °F 6.8 °F 35% 30.27 in 10.0 mi West 4.6 mph - N/A   Clear
1:55 AM 32.0 °F 26.4 °F 6.8 °F 35% 30.28 in 10.0 mi NW 5.8 mph - N/A   Clear
2:15 AM 35.6 °F 30.7 °F 6.8 °F 30% 30.28 in 10.0 mi WNW 5.8 mph - N/A   Clear
2:35 AM 33.8 °F 29.6 °F 6.8 °F 32% 30.28 in 10.0 mi WNW 4.6 mph - N/A   Clear
2:55 AM 32.0 °F 28.7 °F 6.8 °F 35% 30.28 in 10.0 mi South 3.5 mph - N/A   Clear
3:15 AM 30.2 °F 26.7 °F 8.6 °F 40% 30.28 in 10.0 mi South 3.5 mph - N/A   Clear
3:35 AM 28.4 °F 24.6 °F 8.6 °F 43% 30.28 in 10.0 mi South 3.5 mph - N/A   Clear
3:55 AM 24.8 °F 17.9 °F 6.8 °F 46% 30.27 in 10.0 mi South 5.8 mph - N/A   Clear
4:15 AM 26.6 °F 21.2 °F 8.6 °F 47% 30.27 in 10.0 mi SSW 4.6 mph - N/A   Clear
4:35 AM 26.6 °F 22.6 °F 8.6 °F 47% 30.27 in 10.0 mi SSW 3.5 mph - N/A   Clear
4:55 AM 24.8 °F 19.1 °F 8.6 °F 50% 30.27 in 10.0 mi SSW 4.6 mph - N/A   Clear
5:15 AM 26.6 °F 21.2 °F 8.6 °F 47% 30.27 in 10.0 mi SSW 4.6 mph - N/A   Clear
5:35 AM 26.6 °F 21.2 °F 8.6 °F 47% 30.27 in 10.0 mi SSW 4.6 mph - N/A   Clear
5:55 AM 26.6 °F - 8.6 °F 47% 30.26 in 10.0 mi Calm Calm - N/A   Clear
6:15 AM 24.8 °F 19.1 °F 8.6 °F 50% 30.27 in 10.0 mi SSW 4.6 mph - N/A   Clear
6:35 AM - - - N/A% 30.27 in 10.0 mi SSW 4.6 mph - N/A   Clear
6:55 AM 26.6 °F 21.2 °F 10.4 °F 51% 30.28 in 10.0 mi SSW 4.6 mph - N/A   Clear
7:15 AM 24.8 °F 17.9 °F 8.6 °F 50% 30.28 in 10.0 mi SSW 5.8 mph - N/A   Clear
7:55 AM 28.4 °F 23.3 °F 8.6 °F 43% 30.29 in 10.0 mi SSW 4.6 mph - N/A   Clear
8:15 AM 32.0 °F - 10.4 °F 41% 30.29 in 10.0 mi Calm Calm - N/A   Clear
8:35 AM 37.4 °F - 8.6 °F 30% 30.29 in 10.0 mi Calm Calm - N/A   Clear
8:55 AM 35.6 °F 32.8 °F 10.4 °F 35% 30.29 in 10.0 mi ESE 3.5 mph - N/A   Clear
9:15 AM 37.4 °F - 8.6 °F 30% 30.29 in 10.0 mi Calm Calm - N/A   Clear
9:35 AM 39.2 °F - 8.6 °F 28% 30.29 in 10.0 mi Calm Calm - N/A   Clear
9:55 AM 41.0 °F 39.0 °F 8.6 °F 26% 30.30 in 8.0 mi NNE 3.5 mph - N/A   Clear
10:15 AM 42.8 °F 40.1 °F 8.6 °F 25% 30.30 in 10.0 mi North 4.6 mph - N/A   Clear
10:35 AM 44.6 °F - 6.8 °F 21% 30.30 in 10.0 mi Calm Calm - N/A   Clear
10:55 AM 46.4 °F 45.2 °F 6.8 °F 20% 30.30 in 10.0 mi NNE 3.5 mph - N/A   Clear
11:15 AM 46.4 °F 45.2 °F 5.0 °F 18% 30.29 in 10.0 mi North 3.5 mph - N/A   Clear
11:35 AM 48.2 °F - 3.2 °F 16% 30.29 in 10.0 mi Calm Calm - N/A   Clear
12:15 PM 50.0 °F - 1.4 °F 14% 30.29 in 9.0 mi NNW 8.1 mph - N/A   Clear
12:35 PM 50.0 °F - -0.4 °F 13% 30.29 in 10.0 mi NNE 6.9 mph - N/A   Clear
12:55 PM 51.8 °F - -0.4 °F 12% 30.28 in 10.0 mi NNW 3.5 mph - N/A   Clear
1:15 PM 53.6 °F - -0.4 °F 11% 30.28 in 10.0 mi NW 3.5 mph - N/A   Clear
1:35 PM 53.6 °F - -0.4 °F 11% 30.27 in 10.0 mi NNW 3.5 mph - N/A   Clear
2:15 PM 55.4 °F - -2.2 °F 9% 30.25 in 10.0 mi NNE 8.1 mph - N/A   Clear
2:35 PM 55.4 °F - -0.4 °F 10% 30.25 in 10.0 mi NNW 4.6 mph - N/A   Clear
2:55 PM 55.4 °F - -0.4 °F 10% 30.24 in 10.0 mi ENE 5.8 mph - N/A   Clear
3:15 PM 57.2 °F - 1.4 °F 10% 30.24 in 10.0 mi NNE 9.2 mph - N/A   Clear
3:35 PM 57.2 °F - 1.4 °F 10% 30.23 in 10.0 mi North 6.9 mph - N/A   Clear
3:55 PM 57.2 °F - 1.4 °F 10% 30.23 in 10.0 mi North 8.1 mph - N/A   Clear
4:15 PM 57.2 °F - 1.4 °F 10% 30.22 in 10.0 mi NNW 5.8 mph - N/A   Clear
4:35 PM 57.2 °F - 1.4 °F 10% 30.21 in 10.0 mi North 4.6 mph - N/A   Clear
4:55 PM 57.2 °F - -0.4 °F 10% 30.21 in 10.0 mi NNW 11.5 mph - N/A   Clear
5:15 PM 57.2 °F - -0.4 °F 10% 30.21 in 10.0 mi NNW 10.4 mph - N/A   Clear
5:35 PM 57.2 °F - -0.4 °F 10% 30.21 in 10.0 mi NNW 9.2 mph - N/A   Clear
5:55 PM 55.4 °F - -0.4 °F 10% 30.22 in 10.0 mi NNW 11.5 mph - N/A   Clear
6:15 PM 53.6 °F - -0.4 °F 11% 30.22 in 10.0 mi NNW 8.1 mph - N/A   Clear
6:35 PM 53.6 °F - -0.4 °F 11% 30.22 in 10.0 mi North 8.1 mph 16.1 mph N/A   Clear
6:55 PM 50.0 °F - -0.4 °F 13% 30.23 in 10.0 mi NNW 5.8 mph - N/A   Clear
7:15 PM 48.2 °F - 1.4 °F 15% 30.23 in 10.0 mi NNW 5.8 mph - N/A   Clear
7:35 PM 48.2 °F - 1.4 °F 15% 30.23 in 10.0 mi NW 6.9 mph - N/A   Clear
7:55 PM 46.4 °F 42.4 °F 1.4 °F 16% 30.23 in 10.0 mi NNW 8.1 mph - N/A   Clear
8:15 PM 46.4 °F 42.9 °F 1.4 °F 16% 30.23 in 10.0 mi NW 6.9 mph - N/A   Clear
8:35 PM 44.6 °F 41.4 °F 1.4 °F 17% 30.24 in 10.0 mi WNW 5.8 mph - N/A   Clear
9:15 PM 42.8 °F 38.6 °F 3.2 °F 19% 30.25 in 10.0 mi WNW 6.9 mph - N/A   Clear
9:35 PM 41.0 °F 35.8 °F 3.2 °F 21% 30.26 in 10.0 mi WNW 8.1 mph - N/A   Clear
9:55 PM 41.0 °F 35.8 °F 5.0 °F 23% 30.26 in 10.0 mi WNW 8.1 mph - N/A   Clear
10:15 PM 41.0 °F 36.4 °F 5.0 °F 23% 30.26 in 10.0 mi WNW 6.9 mph - N/A   Clear
10:35 PM 41.0 °F 36.4 °F 5.0 °F 23% 30.27 in 10.0 mi WNW 6.9 mph - N/A   Clear
10:55 PM 41.0 °F 36.4 °F 5.0 °F 23% 30.27 in 10.0 mi WNW 6.9 mph - N/A   Clear
11:15 PM 39.2 °F 35.9 °F 5.0 °F 24% 30.28 in 10.0 mi WNW 4.6 mph - N/A   Clear
11:35 PM 37.4 °F 34.9 °F 5.0 °F 26% 30.28 in 10.0 mi WNW 3.5 mph - N/A   Clear
11:55 PM 35.6 °F 31.7 °F 3.2 °F 26% 30.28 in 10.0 mi WNW 4.6 mph - N/A   Clear